Location: Cedarbrook
(36.3103°N, 86.6422°W)
Time: 09:12:19
(UTC+00:00)

Cosmos 1939 Rocket - Pass Details

Date: 29 October 2020
Orbit: 533 x 583 km, 97.4° (Epoch: 04 December)

Event Time Altitude Azimuth Distance (km) Brightness Sun altitude
Rises 23:16:17 0° 140° (SE) 2,732 6.1 -5.4°
Reaches altitude 10° 23:18:42 10° 126° (SE) 1,832 5.1 -5.9°
Maximum altitude 23:21:55 24° 71° (ENE) 1,149 3.9 -6.5°
Drops below altitude 10° 23:25:08 10° 17° (NNE) 1,818 5.2 -7.1°
Sets 23:27:31 0° 3° (N) 2,708 6.2 -7.6°
